Location: Dorchester
(45.9077°N, 64.5103°W)
Time: 01:39:23
(UTC+00:00)

Tiangong - Visible Passes

Search period start: 09 December 2021 00:00
Search period end: 19 December 2021 00:00
Orbit: 379 x 385 km, 41.5° (Epoch: 08 December)

Date Brightness Start Highest point End Pass type
(mag) Time Alt. Az. Time Alt. Az. Time Alt. Az.
09 Dec 3.2 22:39:29 10° SW 22:41:15 20° S 22:41:15 20° S visible
10 Dec 3.4 21:39:40 10° SSW 21:41:40 16° SSE 21:43:38 10° ESE visible
10 Dec 4.1 23:15:04 10° WSW 23:15:47 15° SW 23:15:47 15° SW visible
11 Dec 2.5 22:14:46 10° SW 22:17:32 28° SSE 22:18:07 26° SE visible
12 Dec 3.0 21:14:37 10° SW 21:17:07 21° SSE 21:19:37 10° ESE visible
12 Dec 2.8 22:50:32 10° WSW 22:52:35 29° SW 22:52:35 29° SW visible
13 Dec 2.4 21:50:07 10° WSW 21:53:00 33° S 21:54:53 17° ESE visible
13 Dec 4.4 23:26:35 10° WSW 23:27:02 13° WSW 23:27:02 13° WSW visible
14 Dec 2.2 22:26:00 10° WSW 22:28:56 35° S 22:29:21 34° SSE visible
15 Dec 2.3 21:25:29 10° WSW 21:28:25 36° S 21:31:22 10° ESE visible
15 Dec 3.4 23:02:07 10° WSW 23:03:52 22° SW 23:03:52 22° SW visible
16 Dec 2.6 22:01:26 10° WSW 22:04:19 32° S 22:06:16 16° SE visible
17 Dec 3.3 22:37:42 10° WSW 22:40:05 20° SSW 22:40:56 18° S visible
18 Dec 3.1 21:36:52 10° WSW 21:39:35 26° SSW 21:42:17 10° SE visible
